Uvalde, Texas, United States (78801)
Lat: 29.21N, Lon: 99.79W
Wx Zone: TXZ203
Local Info
Past Weather Observations for Today

NOTE: This archive is for the closest National Weather Service station to Uvalde. Information may differ from the station used for current weather conditions.

Click here for Long-term Archive

Time Weather Temperature Dewpoint Humidity Pressure Winds Precip Visibility
13:35
Partly Cloudy
88°F / 31°C 73°F / 23°C 62% 29.95 in
(1014 mb)
E 6.9 mph
(E 11 kph)
- 10SM
13:15
Clear
88°F / 31°C 73°F / 23°C 62% 29.95 in
(1014 mb)
SE 8.1 mph
(SE 13 kph)
- 10SM
12:55
Clear
88°F / 31°C 73°F / 23°C 62% 29.98 in
(1015 mb)
E 6.9 mph
(E 11 kph)
- 10SM
12:35
Partly Cloudy
88°F / 31°C 75°F / 24°C 66% 29.98 in
(1015 mb)
E 8.1 mph
(E 13 kph)
- 10SM
12:15
Partly Cloudy
88°F / 31°C 77°F / 25°C 70% 29.98 in
(1015 mb)
E 8.1 mph
(E 13 kph)
- 10SM
11:55
Partly Cloudy
86°F / 30°C 77°F / 25°C 75% 29.98 in
(1015 mb)
SE 6.9 mph
(SE 11 kph)
- 10SM
11:35
Overcast
82°F / 28°C 75°F / 24°C 79% 30.01 in
(1016 mb)
ESE 8.1 mph
(ESE 13 kph)
- 10SM
11:15
Overcast
82°F / 28°C 75°F / 24°C 79% 30.01 in
(1016 mb)
SE 5.8 mph
(SE 9 kph)
- 10SM
10:55
Overcast
81°F / 27°C 75°F / 24°C 84% 30.01 in
(1016 mb)
E 8.1 mph
(E 13 kph)
- 10SM
10:35
Overcast
81°F / 27°C 75°F / 24°C 84% 30.01 in
(1016 mb)
E 8.1 mph
(E 13 kph)
- 10SM
10:15
Overcast
81°F / 27°C 75°F / 24°C 84% 30.01 in
(1016 mb)
ESE 10.4 mph
(ESE 17 kph)
- 10SM
09:55
Overcast
79°F / 26°C 75°F / 24°C 89% 29.98 in
(1015 mb)
E 10.4 mph
(E 17 kph)
- 10SM
09:35
Overcast
79°F / 26°C 75°F / 24°C 89% 29.98 in
(1015 mb)
E 10.4 mph
(E 17 kph)
- 10SM
09:15
Overcast
79°F / 26°C 75°F / 24°C 89% 29.98 in
(1015 mb)
E 8.1 mph
(E 13 kph)
- 10SM
08:55
Overcast
79°F / 26°C 75°F / 24°C 89% 29.98 in
(1015 mb)
E 8.1 mph
(E 13 kph)
- 10SM
08:35
Overcast
79°F / 26°C 75°F / 24°C 89% 29.98 in
(1015 mb)
ESE 8.1 mph
(ESE 13 kph)
- 10SM
08:15
Overcast
77°F / 25°C 75°F / 24°C 94% 29.98 in
(1015 mb)
E 8.1 mph
(E 13 kph)
- 10SM
07:55
Overcast
75°F / 24°C 73°F / 23°C 94% 29.95 in
(1014 mb)
E 6.9 mph
(E 11 kph)
- 7SM
07:35
Overcast
75°F / 24°C 73°F / 23°C 94% 29.95 in
(1014 mb)
ENE 6.9 mph
(ENE 11 kph)
- 7SM
07:15
Overcast
75°F / 24°C 73°F / 23°C 94% 29.95 in
(1014 mb)
E 6.9 mph
(E 11 kph)
- 7SM
06:55
Overcast
75°F / 24°C 73°F / 23°C 94% 29.95 in
(1014 mb)
E 6.9 mph
(E 11 kph)
- 7SM
06:35
Overcast
75°F / 24°C 75°F / 24°C 100% 29.95 in
(1014 mb)
ENE 4.6 mph
(ENE 7 kph)
- 7SM
06:15
Overcast
75°F / 24°C 75°F / 24°C 100% 29.95 in
(1014 mb)
ENE 4.6 mph
(ENE 7 kph)
- 7SM
05:55
Overcast
Fog And Mist
75°F / 24°C 75°F / 24°C 100% 29.95 in
(1014 mb)
E 5.8 mph
(E 9 kph)
- 5SM
05:35
Overcast
75°F / 24°C 75°F / 24°C 100% 29.95 in
(1014 mb)
E 5.8 mph
(E 9 kph)
- 7SM
05:15
Overcast
Fog And Mist
75°F / 24°C 73°F / 23°C 94% 29.95 in
(1014 mb)
E 6.9 mph
(E 11 kph)
- 5SM
04:55
Overcast
75°F / 24°C 73°F / 23°C 94% 29.95 in
(1014 mb)
E 5.8 mph
(E 9 kph)
- 10SM
04:35
Overcast
75°F / 24°C 73°F / 23°C 94% 29.95 in
(1014 mb)
ENE 6.9 mph
(ENE 11 kph)
- 7SM
04:15
Overcast
Fog And Mist
75°F / 24°C 73°F / 23°C 94% 29.95 in
(1014 mb)
E 5.8 mph
(E 9 kph)
- 5SM
03:55
Overcast
75°F / 24°C 73°F / 23°C 94% 29.95 in
(1014 mb)
E 5.8 mph
(E 9 kph)
- 7SM
03:35
Overcast
75°F / 24°C 73°F / 23°C 94% 29.92 in
(1013 mb)
E 8.1 mph
(E 13 kph)
- 7SM
03:15
Overcast
75°F / 24°C 73°F / 23°C 94% 29.95 in
(1014 mb)
E 4.6 mph
(E 7 kph)
- 10SM
02:55
Overcast
75°F / 24°C 73°F / 23°C 94% 29.92 in
(1013 mb)
E 4.6 mph
(E 7 kph)
- 10SM
02:35
Overcast
75°F / 24°C 73°F / 23°C 94% 29.92 in
(1013 mb)
E 5.8 mph
(E 9 kph)
- 10SM
02:15
Overcast
75°F / 24°C 73°F / 23°C 94% 29.95 in
(1014 mb)
E 5.8 mph
(E 9 kph)
- 10SM
01:55
Mostly Cloudy
75°F / 24°C 73°F / 23°C 94% 29.95 in
(1014 mb)
E 6.9 mph
(E 11 kph)
- 10SM
01:35
Partly Cloudy
75°F / 24°C 73°F / 23°C 94% 29.95 in
(1014 mb)
E 8.1 mph
(E 13 kph)
- 10SM
01:15
Mostly Cloudy
75°F / 24°C 73°F / 23°C 94% 29.95 in
(1014 mb)
E 8.1 mph
(E 13 kph)
- 10SM
00:55
Overcast
75°F / 24°C 73°F / 23°C 94% 29.95 in
(1014 mb)
E 5.8 mph
(E 9 kph)
- 10SM
00:35
Overcast
79°F / 26°C 73°F / 23°C 84% 29.95 in
(1014 mb)
E 5.8 mph
(E 9 kph)
- 10SM
00:15
Mostly Cloudy
79°F / 26°C 73°F / 23°C 84% 29.95 in
(1014 mb)
E 5.8 mph
(E 9 kph)
- 10SM
Time Weather Temperature Dewpoint Humidity Pressure Winds Precip Visibility


Weather for websites

WeatherForYou.com, LLC is not responsible for any damages or problems caused by this service. Current weather conditions are obtained from the closest station including government and personal stations which may have varying degrees of accuracy. Weather forecasts are derived from the NOAA NDFD. Like all things, this site belongs to Jesus Christ... He just trusts me to maintain it. If you have any questions or comments email webmaster@weatherforyou.com

Copyright © 2014, WeatherForYou.com LLC. All rights reserved.